Regional Weather Roundup
Issued by NWS State College, PA

Home | Current Version | Previous Version | Text Only | Print | Product List | Glossary Off
Versions: 1 2 3 4 5 6 7 8 9 10 11 12 13 14 15 16 17 18 19 20 21 22 23 24 25 26 27 28 29 30 31 32 33 34 35 36 37 38 39 40 41 42 43 44 45 46 47 48 49 50

000
ASUS41 KCTP 190610
RWRCTP

REGIONAL WEATHER ROUNDUP
NATIONAL WEATHER SERVICE STATE COLLEGE PA
100 AM EST FRI DEC 19 2014

Note: "fair" indicates few or no clouds below 12,000 feet with no
significant weather and/or obstructions to visibility.

* = STATION THAT DOES NOT REPORT PRECIPITATION /E.G. RAIN...SNOW...ETC/
    THUNDER OR FOG.

PAZ002>004-007>009-013>016-020>023-029>032-190700-
WESTERN PENNSYLVANIA

CITY           SKY/WX    TMP DP  RH WIND       PRES   REMARKS
ERIE           FLURRIES  32  26  78 NW13      30.12S
MEADVILLE      CLOUDY    28  26  92 W7        30.08F FOG
FRANKLIN*      CLOUDY    27  23  86 W8        30.09F
NEW CASTLE       N/A     27  27 100 SW6       30.14F FOG
BEAVER COUNTY  NOT AVBL
BUTLER*        CLOUDY    27  25  93 W7        30.14S
PITTSBURGH INT CLOUDY    27  22  81 W10       30.14S
PITTSBURGH     CLOUDY    27  19  72 W9        30.12F
INDIANA*       CLOUDY    27  25  93 W12       30.13S FOG
LATROBE        CLOUDY    27  25  93 SW9       30.14F
WASHINGTON CO* NOT AVBL
$$

PAZ004>006-010>012-017>019-024>028-033>037-041-042-045-046-049>053-190700-
CENTRAL PENNSYLVANIA

CITY           SKY/WX    TMP DP  RH WIND       PRES   REMARKS
BRADFORD       CLOUDY    26  23  88 W10       29.99S FOG
DUBOIS         CLOUDY    26  25  96 W12       30.03F
CLEARFIELD     CLOUDY    28  24  85 W10       30.05S
JOHNSTOWN      CLOUDY    23  21  92 W12       30.02F FOG     WCI  12
ALTOONA        CLOUDY    28  22  78 NW10      30.06S
STATE COLLEGE  CLOUDY    30  24  77 W12       30.04S
WILLIAMSPORT   CLOUDY    34  26  72 W12       30.03S
SELINSGROVE    CLOUDY    34  25  69 W5        30.05F
FT INDIANTOWN  CLOUDY    34  24  66 W8        30.04F
CAPITAL CITY   CLOUDY    35  24  64 W8        30.06F
HARRISBURG     CLOUDY    34  25  69 NW12      30.06F
YORK           CLOUDY    34  24  67 W6        30.06F
$$

PAZ038>040-043-044-047-048-054-055-060>062-067>071-190700-
EASTERN PENNSYLVANIA

CITY           SKY/WX    TMP DP  RH WIND       PRES   REMARKS
SCRANTON       CLOUDY    34  23  64 W8G21     29.98S
MOUNT POCONO   CLOUDY    29  21  72 NW14G23   29.90F
ALLENTOWN      CLOUDY    36  25  64 W5        30.00F
QUAKERTOWN*    CLOUDY    34  27  75 W6        30.00F
READING        CLOUDY    35  24  64 W10       30.02F
LANCASTER      CLOUDY    34  24  67 W10       30.04F
COATESVILLE    CLOUDY    34  28  80 NW9       30.02F
POTTSTOWN      CLOUDY    35  25  66 W6        30.03F
BLUE BELL      CLOUDY    36  28  75 CALM      30.00F
DOYLESTOWN     CLOUDY    34  27  75 W7        29.99F
WILLOW GROVE   NOT AVBL
NORTH PHILA    CLOUDY    38  24  57 W10       30.03F
PHILADELPHIA   CLOUDY    38  25  59 W12       30.04F
$$


USA.gov is the U.S. government's official web portal to all federal, state and local government web resources and services.